Location: Newark
(34.6000°S, 58.3833°W)
Time: 15:53:25
(UTC+00:00)

LightSail 2 - Visible Passes

Search period start: 19 October 2019 00:00
Search period end: 29 October 2019 00:00
Orbit: 707 x 722 km, 24.0° (Epoch: 18 October)

Date Brightness Start Highest point End Pass type
(mag) Time Alt. Az. Time Alt. Az. Time Alt. Az.
19 Oct 6.7 07:40:24 19° NNW 07:41:59 22° N 07:45:55 10° ENE visible
20 Oct 7.2 06:46:16 17° NE 06:46:16 17° NE 06:48:14 10° ENE visible
20 Oct 6.5 08:25:20 10° NW 08:29:33 25° N 08:33:45 10° NE visible
21 Oct 6.4 07:31:08 23° NNW 07:32:06 25° N 07:36:17 10° ENE visible
22 Oct 7.2 06:37:00 17° NE 06:37:00 17° NE 06:38:43 10° ENE visible
22 Oct 6.5 08:16:00 12° NW 08:19:39 24° N 08:23:48 10° NE visible
23 Oct 6.4 07:21:54 25° N 07:22:11 25° N 07:26:24 10° NE visible
24 Oct 7.4 06:27:50 15° NE 06:27:50 15° NE 06:28:55 10° NE visible
24 Oct 6.6 08:06:50 14° NW 08:09:41 21° N 08:13:32 10° NE visible
25 Oct 6.6 07:12:51 23° N 07:12:51 23° N 07:16:18 10° NE visible
26 Oct 7.7 06:18:55 10° NE 06:18:55 10° NE 06:18:56 10° NE visible
26 Oct 6.8 07:57:55 14° NW 07:59:40 16° NNW 08:02:53 10° NNE visible
27 Oct 7.0 07:04:04 16° NNE 07:04:04 16° NNE 07:05:52 10° NNE visible
28 Oct 7.1 07:49:19 12° NNW 07:49:34 12° NNW 07:51:19 10° N visible
